Home > Weather > Schwerin > Past weeks

Flag for Germany Past Weather in Schwerin, Mecklenburg-Western Pomerania, Germany — Yesterday and Last 2 Weeks

Now
57 °F

Fog.


Feels Like: 57 °F
Forecast: 52 / 65 °F
Wind: 5 mph from Southwest

Location: Mecklenburg-Vorpommern - Parchim

Current Time: May 26, 2016 at 12:56:32 PM

Latest Report: May 26, 2016 at 12:20 PM


Visibility: 2 mi

Pressure: 30.01 "Hg

Humidity: 94%

Dew Point: 55 °F

Location of SchwerinLocation

Past Weather in Schwerin — Graph

°F

Schwerin Temperature Yesterday

Maximum temperature yesterday: 61 °F (at 4:20 PM)
Minimum temperature yesterday: 54 °F (at 6:20 AM)
Average temperature yesterday: 57 °F

High & Low Weather Summary for the Past Weeks

 TemperatureHumidityPressure
High84 °F (May 22, 5:20 PM)100% (May 16, 6:50 AM)30.04 "Hg (May 16, 6:50 AM)
Low39 °F (May 16, 6:50 AM)25% (May 22, 5:50 PM)29.59 "Hg (May 13, 2:20 PM)
Average60 °F65%29.84 "Hg
* Reported May 11 11:20 AM — May 26 11:20 AM, Schwerin, Weather by CustomWeather, © 2016

Note: Actual official high and low records may vary slightly from our data, if they occured in-between our weather recording intervals... More about our weather records

Advertising

Schwerin Weather History for the Previous 24 Hours

Scroll right to see more
 ConditionsComfort  
Time TempWeatherWind HumidityBarometerVisibility
11:20 AM
Thu, May 26
57 °FFog.5 mph94%30.01 "Hg2 mi
10:50 AM57 °FFog.6 mph94%30.01 "Hg2 mi
10:20 AM55 °FFog.3 mph100%30.01 "Hg1 mi
9:50 AM55 °FFog.5 mph100%30.01 "Hg1 mi
9:20 AM55 °FFog.3 mph100%30.01 "Hg0 mi
8:50 AM55 °FFog.5 mph100%30.01 "Hg0 mi
8:20 AM55 °FFog.6 mph100%30.01 "Hg0 mi
7:50 AM55 °FFog.3 mph100%29.98 "Hg0 mi
7:20 AM55 °FFog.3 mph100%29.98 "Hg0 mi
6:50 AM55 °FFog.6 mph100%29.98 "Hg0 mi
6:20 AM55 °FFog.5 mph100%29.98 "Hg0 mi
6:50 PM
Wed, May 25
61 °FPartly sunny.9 mph83%29.95 "HgN/A
6:20 PM61 °FPartly sunny.10 mph83%29.95 "HgN/A
5:50 PM61 °FPartly sunny.6 mph83%29.95 "HgN/A
5:20 PM61 °FOvercast.7 mph83%29.95 "HgN/A
4:50 PM61 °FOvercast.5 mph83%29.95 "HgN/A
4:20 PM61 °FOvercast.7 mph83%29.95 "HgN/A
3:50 PM59 °FOvercast.5 mph88%29.95 "HgN/A
3:20 PM59 °FOvercast.6 mph88%29.95 "Hg6 mi
2:50 PM59 °FOvercast.7 mph88%29.95 "Hg6 mi
2:20 PM59 °FOvercast.8 mph88%29.95 "Hg6 mi
1:50 PM57 °FLow clouds.7 mph88%29.95 "HgN/A
1:20 PM57 °FLow clouds.8 mph88%29.95 "HgN/A
12:50 PM59 °FLow clouds.9 mph82%29.95 "Hg6 mi
12:20 PM57 °FLow clouds.8 mph88%29.95 "Hg6 mi
Weather by CustomWeather, © 2016

See weather overviewHow to use our weather pages